Regional Weather Roundup
Issued by NWS Charleston, SC

Current Version | Previous Version | Text Only | Print | Product List | Glossary Off
Versions: 1 2 3 4 5 6 7 8 9 10 11 12 13 14 15 16 17 18 19 20 21 22 23 24 25 26 27 28 29 30 31 32 33 34 35 36 37 38 39 40 41 42 43 44 45 46 47 48 49 50

079
ASUS42 KCHS 192127
RWRCHS

Regional Weather Roundup
National Weather Service Charleston SC
400 PM EST MON FEB 19 2018

NOTE: "fair" indicates few or no clouds below 12,000 feet with no
significant weather and/or obstructions to visibility.

Not all stations are quality controlled. Use data with caution,
especially dewpoint observations.

SCZ027-030-031-034>040-042>050-192200-
...Southeast South Carolina...

CITY           SKY/WX    TMP DP  RH WIND       PRES   REMARKS
N Charleston   FAIR      78  64  61 S10       30.32F
Waterfront Prk NOT AVBL
Mount Pleasant FAIR      73  66  78 CALM      30.34S
Johns Island   CLOUDY    75  68  78 SE6       30.33F
Pinopolis        N/A     64  61  88 CALM      30.26S
Moncks Corner  MOCLDY    72  59  64 NE5       30.32F
Summerville    MOCLDY    79  63  57 S7        30.32F
Beaufort MCAS  FAIR      77  68  73 SE7       30.32F
Beaufort Arpt  FAIR      75  64  69 SE7       30.32S HAZE
Hilton Head Is SUNNY     70  64  83 E7        30.34F
Walterboro     MOCLDY    79  61  53 SW12G17   30.32S
Allendale      FAIR      77  63  61 SE10      30.29F

...Southern Midlands and Pee Dee...

CITY           SKY/WX    TMP DP  RH WIND       PRES   REMARKS
Georgetown     CLOUDY    66  64  94 CALM      30.36F
Kingstree      MOCLDY    68  59  73 NE3       30.34F
Orangeburg     FAIR      73  60  63 SE6       30.32F
Barnwell         N/A     77  64  65 SE5       30.30F
Aiken          FAIR      72  59  64 SE5       30.34F
Manning        FAIR      72  45  37 MISG      30.33F
Columbia       PTSUNNY   74  60  61 CALM      30.31F
Sumter         PTSUNNY   71  57  61 E3        30.32F
Florence       PTSUNNY   64  56  75 CALM      30.36F
Myrtle Beach   CLOUDY    63  63 100 SE3       30.37S
N Myrtle Beach CLOUDY    64  62  93 E3        30.36S

$$

GAZ063-065-086>088-099>101-113>116-118-119-134>141-150-192200-
...Southeast Georgia...

CITY           SKY/WX    TMP DP  RH WIND       PRES   REMARKS
Savannah Arpt  PTSUNNY   80  64  58 SE12      30.31F
Hunter AAF     FAIR      78  66  65 S10       30.29F
Fort Stewart   FAIR      80  62  53 SE13      30.28F
Statesboro     FAIR      79  55  43 S9        30.29F
Sylvania       FAIR      79  63  57 SW9       30.30F
Claxton        FAIR      81  63  54 E9        30.29F

...CSRA, Central and far Southeast Georgia...

CITY           SKY/WX    TMP DP  RH WIND       PRES   REMARKS
Thomson        FAIR      71  61  68 E3        30.34F
Augusta-Bush   FAIR      76  61  59 E6        30.28F
Augusta-Daniel FAIR      74  60  61 SE6       30.30F
Swainsboro     FAIR      79  59  50 S10G16    30.29F
Vidalia        FAIR      82  61  47 S5        30.28F
Eastman        FAIR      81  44  27 S10       30.29F
Hazlehurst     FAIR      79  51  37 SE7       30.26F
Alma           FAIR      79  60  52 SE9       30.27F
Waycross       FAIR      79  59  50 S9        30.27F
Jesup          FAIR      81  61  50 SE6       30.29S
Baxley         CLOUDY    77  59  53 SE5       30.27F
Brunswick      FAIR      75  63  64 S7        30.32S
Saint Simons   FAIR      70  64  81 E7        30.31F

$$

SCZ027-028-034-036>038-045-046-048>050-GAZ119-141-192200-
...Lake and Supplemental Coastal Observations...

STATION/POSITION TIME  TEMP    WIND        PRES    WAVE   SWELL
                       AIR SEA DIR/SP/G            HT/PER HT/PER/DIR
                 (UTC) (F)     (DEG/KT/KT) (MB)    (FT/S) (FT/S/D)
Winyah Bay       2045   63        CALM     1028.0S
Lake Murray      2120   73        CALM     1026.1
ACE Basin NERRS  2045   75     160/  2     1027.0S
Fort Pulaski     2100   61 60   90/  6/  8 1027.2
Sapelo Island    2100   74      90/  6     1027.0

$$

ANZ835-935-AMZ111-154-330-350-352-354-370-450-454-472-192200-
...C-MAN and Buoy Observations...

STATION/POSITION TIME  TEMP    WIND        PRES    WAVE   SWELL
                       AIR SEA DIR/SP/G            HT/PER HT/PER/DIR
                 (UTC) (F)     (DEG/KT/KT) (MB)    (FT/S) (FT/S/D)
Buoy 41004       2110   71 69  120/  4/  4 1027.4
Buoy 41008       2050   61 60   10/  6/  6 1026.6S   3/ 7   3/ 50/ 7
Folly Beach CMAN 2100   63      70/  6/  7 1028.1S
Capers Nearshore 2008   59 58   50/  6/  8 1027.4F
Fripp Nearshore  2108   63 60   60/  4/  6 1026.5F


STATION/POSITION TIME  TEMP    WIND        PRES    WAVE   SWELL
                       AIR SEA DIR/SP/G            HT/PER HT/PER/DIR
                 (UTC) (F)     (DEG/KT/KT) (MB)    (FT/S) (FT/S/D)
5E St. Marys GA  2100      61                N/A     2/ 9
Frying Pan Buoy  2110   70 67  140/ 10/ 10 1028.4
Buoy 41025       2110   70 71  160/ 16/ 21 1030.2
Cape Lookout NC  2100          170/  9/ 10 1029.3R
Buoy 41002       2050   71 73  100/ 14/ 16 1029.4R   5/ 9   3/ 40/ 9
Buoy 41010       NOT AVBL
St Augustine FL  2100   62 62  360/  6/  6 1026.1F


$$




USA.gov is the U.S. government's official web portal to all federal, state and local government web resources and services.